Date String (YYYY-MM-DD hh:mm:ss) UTC,Instrument flags,Ambient pressure (hPa),Sample flow (lpm),Bypass flow (lpm),Sample temperature (°C),Ambient temperature (°C),ASC tube jacket temperature (°C),LED temperature (°C),Box temperature (°C),Sample RH (%),Span deviation,Mass concentration (μg/m³),Mass concentration (μg/m³),Mass concentration (μg/m³)
DateTimeUTC,F1_M11,P_M11,Q1_M11,Q2_M11,T1_M11,T2_M11,T3_M11,T4_M11,T5_M11,U1_M11,ZSPAN_M11,X2_M11,X0_M11,X1_M11
2022-01-16 11:00:00,,0825.2,4.99,0.00,22.5,21.8,00.0,31.5,24.3,07.0,0000.0,0004.61,0007.54,0004.31
2022-01-16 11:01:00,,0825.2,5.01,0.00,22.5,21.8,00.0,31.5,24.2,07.0,0000.0,0004.61,0007.55,0004.29
2022-01-16 11:02:00,,0825.2,4.99,0.00,22.5,21.8,00.0,31.5,24.2,06.8,0000.0,0004.60,0007.57,0004.27
2022-01-16 11:03:00,,0825.2,5.02,0.00,22.4,21.8,00.0,31.5,24.2,06.8,0000.0,0004.57,0007.83,0004.23
2022-01-16 11:04:00,,0825.2,4.99,0.00,22.4,21.7,00.0,31.5,24.2,06.8,0000.0,0004.54,0007.90,0004.20
2022-01-16 11:05:00,,0825.2,5.00,0.00,22.4,21.7,00.0,31.5,24.2,06.8,0000.0,0004.49,0007.89,0004.16
2022-01-16 11:06:00,,0825.1,4.99,0.00,22.4,21.7,00.0,31.5,24.2,06.8,0000.0,0004.46,0008.16,0004.13
2022-01-16 11:07:00,,0825.2,5.00,0.00,22.4,21.7,00.0,31.5,24.2,06.6,0000.0,0004.43,0008.14,0004.09
2022-01-16 11:08:00,,0825.2,5.00,0.00,22.4,21.7,00.0,31.4,24.2,06.7,0000.0,0004.37,0008.04,0004.04
2022-01-16 11:09:00,,0825.2,5.01,0.00,22.4,21.7,00.0,31.4,24.2,06.7,0000.0,0004.30,0007.92,0004.01
2022-01-16 11:10:00,,0825.2,5.00,0.00,22.4,21.7,00.0,31.4,24.2,06.6,0000.0,0004.30,0007.96,0003.98
2022-01-16 11:11:00,,0825.2,5.00,0.00,22.4,21.7,00.0,31.4,24.2,06.5,0000.0,0004.24,0007.85,0003.94
2022-01-16 11:12:00,,0825.2,5.00,0.00,22.4,21.7,00.0,31.4,24.1,06.4,0000.0,0004.20,0007.71,0003.90
2022-01-16 11:13:00,,0825.2,4.99,0.00,22.4,21.7,00.0,31.4,24.1,06.4,0000.0,0004.16,0007.71,0003.86
2022-01-16 11:14:00,,0825.1,5.02,0.00,22.4,21.7,00.0,31.4,24.1,06.5,0000.0,0004.13,0007.43,0003.83
2022-01-16 11:15:00,,0825.0,4.99,0.00,22.3,21.6,00.0,31.4,24.1,06.6,0000.0,0004.08,0007.30,0003.80
2022-01-16 11:16:00,,0825.1,5.00,0.00,22.3,21.6,00.0,31.4,24.1,06.5,0000.0,0004.05,0007.73,0003.77
2022-01-16 11:17:00,,0825.1,5.02,0.00,22.3,21.6,00.0,31.4,24.0,06.6,0000.0,0004.00,0007.23,0003.73
2022-01-16 11:18:00,,0825.1,4.99,0.00,22.3,21.6,00.0,31.4,24.0,06.7,0000.0,0003.97,0007.16,0003.70
2022-01-16 11:19:00,,0825.1,5.00,0.00,22.3,21.6,00.0,31.4,24.0,06.3,0000.0,0003.94,0007.13,0003.68
2022-01-16 11:20:00,,0825.1,5.02,0.00,22.3,21.6,00.0,31.4,24.1,06.2,0000.0,0003.90,0007.07,0003.65
2022-01-16 11:21:00,,0825.1,4.99,0.00,22.3,21.6,00.0,31.4,24.1,06.3,0000.0,0003.86,0006.99,0003.61
2022-01-16 11:22:00,,0825.1,5.00,0.00,22.3,21.6,00.0,31.4,24.1,06.2,0000.0,0003.83,0007.70,0003.59
2022-01-16 11:23:00,,0825.1,4.99,0.00,22.3,21.6,00.0,31.4,24.1,06.1,0000.0,0003.82,0008.16,0003.56
2022-01-16 11:24:00,,0825.1,5.01,0.00,22.3,21.6,00.0,31.4,24.1,06.3,0000.0,0003.79,0008.10,0003.53
2022-01-16 11:25:00,,0825.1,4.99,0.00,22.3,21.6,00.0,31.3,24.0,06.1,0000.0,0003.75,0008.05,0003.52
2022-01-16 11:26:00,,0825.1,5.01,0.00,22.3,21.6,00.0,31.3,24.0,06.0,0000.0,0003.72,0007.83,0003.49
2022-01-16 11:27:00,,0825.0,5.00,0.00,22.3,21.6,00.0,31.3,24.1,06.1,0000.0,0003.69,0007.39,0003.46
2022-01-16 11:28:00,,0825.0,4.99,0.00,22.3,21.6,00.0,31.3,24.1,06.1,0000.0,0003.67,0007.64,0003.43
2022-01-16 11:29:00,,0824.9,5.01,0.00,22.3,21.6,00.0,31.3,24.1,06.1,0000.0,0003.65,0007.94,0003.42
2022-01-16 11:30:00,,0824.9,4.99,0.00,22.3,21.6,00.0,31.3,24.1,06.0,0000.0,0003.66,0008.00,0003.40
2022-01-16 11:31:00,,0825.1,5.01,0.00,22.3,21.6,00.0,31.3,24.1,06.0,0000.0,0003.67,0008.05,0003.39
2022-01-16 11:32:00,,0825.1,4.99,0.00,22.3,21.8,00.0,31.3,24.1,06.0,0000.0,0003.67,0008.05,0003.38
2022-01-16 11:33:00,,0825.1,5.00,0.00,22.4,22.5,00.0,31.4,24.3,06.2,0000.0,0003.66,0007.19,0003.37
2022-01-16 11:34:00,,0825.1,5.00,0.00,22.6,23.1,00.0,31.4,24.6,06.3,0000.0,0003.63,0006.55,0003.37
2022-01-16 11:35:00,,0825.1,5.00,0.00,22.6,23.0,00.0,31.4,24.6,06.0,0000.0,0003.61,0006.45,0003.36
2022-01-16 11:36:00,,0825.1,4.99,0.00,22.7,22.9,00.0,31.5,24.7,06.0,0000.0,0003.58,0006.40,0003.34
2022-01-16 11:37:00,,0825.1,5.01,0.00,22.7,22.7,00.0,31.5,24.6,05.9,0000.0,0003.58,0006.49,0003.33
2022-01-16 11:38:00,,0825.1,4.99,0.00,22.7,22.6,00.0,31.5,24.6,05.9,0000.0,0003.56,0006.46,0003.32
2022-01-16 11:39:00,,0825.1,4.99,0.00,22.7,22.5,00.0,31.5,24.6,05.9,0000.0,0003.55,0006.06,0003.30
2022-01-16 11:40:00,,0825.1,5.01,0.00,22.7,22.4,00.0,31.5,24.5,05.8,0000.0,0003.55,0005.38,0003.30
2022-01-16 11:41:00,,0825.1,4.98,0.00,22.7,22.3,00.0,31.5,24.5,05.8,0000.0,0003.52,0005.15,0003.30
2022-01-16 11:42:00,,0825.2,5.02,0.00,22.7,22.2,00.0,31.6,24.5,05.7,0000.0,0003.49,0005.04,0003.29
2022-01-16 11:43:00,,0825.2,4.99,0.00,22.7,22.2,00.0,31.6,24.5,05.7,0000.0,0003.49,0005.12,0003.29
2022-01-16 11:44:00,,0825.1,4.99,0.00,22.7,22.1,00.0,31.6,24.5,05.7,0000.0,0003.48,0005.14,0003.30
2022-01-16 11:45:00,,0825.1,5.00,0.00,22.7,22.1,00.0,31.6,24.4,05.7,0000.0,0003.50,0005.16,0003.31
2022-01-16 11:46:00,,0825.1,5.01,0.00,22.6,22.0,00.0,31.6,24.5,05.7,0000.0,0003.52,0005.24,0003.32
2022-01-16 11:47:00,,0825.1,4.99,0.00,22.6,22.0,00.0,31.6,24.4,05.7,0000.0,0003.54,0005.27,0003.34
2022-01-16 11:48:00,,0825.1,5.01,0.00,22.6,22.0,00.0,31.6,24.4,05.7,0000.0,0003.55,0005.13,0003.36
2022-01-16 11:49:00,,0825.1,4.99,0.00,22.6,22.0,00.0,31.6,24.4,05.8,0000.0,0003.58,0005.21,0003.39
2022-01-16 11:50:00,,0825.0,5.00,0.00,22.6,22.0,00.0,31.6,24.4,05.7,0000.0,0003.61,0005.19,0003.41
2022-01-16 11:51:00,,0825.0,5.00,0.00,22.6,21.9,00.0,31.6,24.4,05.7,0000.0,0003.63,0005.42,0003.43
2022-01-16 11:52:00,,0825.1,5.02,0.00,22.6,21.9,00.0,31.6,24.4,05.7,0000.0,0003.67,0005.94,0003.46
2022-01-16 11:53:00,,0825.1,4.99,0.00,22.6,21.9,00.0,31.6,24.4,05.7,0000.0,0003.72,0006.19,0003.48
2022-01-16 11:54:00,,0825.0,5.01,0.00,22.6,21.9,00.0,31.6,24.4,05.7,0000.0,0003.75,0006.15,0003.52
2022-01-16 11:55:00,,0825.0,5.00,0.00,22.6,21.9,00.0,31.6,24.4,05.6,0000.0,0003.76,0006.18,0003.53
2022-01-16 11:56:00,,0824.9,4.99,0.00,22.6,21.9,00.0,31.6,24.4,05.5,0000.0,0003.76,0006.20,0003.53
2022-01-16 11:57:00,,0824.9,5.01,0.00,22.6,21.9,00.0,31.6,24.4,05.3,0000.0,0003.70,0006.00,0003.49
2022-01-16 11:58:00,,0824.9,4.99,0.00,22.6,21.9,00.0,31.6,24.4,05.6,0000.0,0003.65,0005.90,0003.46
2022-01-16 11:59:00,,0824.9,5.01,0.00,22.6,21.9,00.0,31.6,24.4,05.9,0000.0,0003.64,0006.58,0003.45
